Visibility
15.0 15.0 15.0 15.0 15.0 15.0 15.0 15.0 15.0 15.0 15.0 15.0 15.0 15.0 15.0 15.0 15.0 15.0 15.0 11.8 15.0 15.0 5.1 1.9 9.7 5.1 7.6 12.7 10.4 7.0 10.4 15.0
15.0 15.0 15.0 15.0 15.0 15.0 15.0 15.0 15.0 15.0 15.0 0.1 0.1 14.9 15.0 15.0 15.0 15.0 7.1 15.0 11.1 1.0 3.1 3.0 5.7 8.2 5.8 6.4 8.2 8.5 6.6 13.2
15.0 15.0 15.0 15.0 15.0 15.0 15.0 15.0 15.0 15.0 15.0 15.0 15.0 15.0 15.0 15.0 15.0 15.0 5.3 15.0 15.0 5.1 5.8 5.0 6.2 11.7 6.7 6.1 15.0 11.6 15.0 15.0
15.0 15.0 15.0 15.0 15.0 15.0 15.0 15.0 15.0 15.0 15.0 15.0 15.0 15.0 15.0 15.0 14.9 15.0 0.3 15.0 9.1 7.0 4.5 8.4 9.0 5.3 5.3 14.9 14.3 14.6 15.0 15.0
15.0 15.0 15.0 15.0 15.0 15.0 15.0 15.0 15.0 15.0 15.0 15.0 15.0 15.0 15.0 15.0 15.0 15.0 0.1 15.0 15.0 15.0 13.6 6.3 7.5 5.5 9.5 15.0 15.0 15.0 15.0 15.0
15.0 15.0 15.0 15.0 15.0 15.0 15.0 15.0 15.0 15.0 15.0 15.0 15.0 15.0 15.0 15.0 15.0 15.0 14.0 15.0 15.0 12.1 7.6 4.6 6.9 14.8 9.1 15.0 15.0 11.5 15.0 14.8
15.0 15.0 15.0 15.0 15.0 15.0 15.0 15.0 15.0 15.0 15.0 15.0 15.0 15.0 15.0 15.0 15.0 15.0 0.1 0.1 0.7 15.0 14.4 10.8 15.0 12.8 14.9 15.0 15.0 15.0 15.0 15.0
15.0 15.0 15.0 15.0 15.0 15.0 15.0 15.0 15.0 15.0 15.0 15.0 15.0 15.0 15.0 15.0 15.0 15.0 0.1 0.1 0.1 0.2 15.0 14.3 6.8 9.6 14.6 15.0 15.0 15.0 15.0 15.0
15.0 15.0 15.0 15.0 15.0 15.0 15.0 15.0 15.0 15.0 15.0 15.0 15.0 15.0 15.0 15.0 15.0 15.0 15.0 9.4 15.0 15.0 8.1 14.2 15.0 6.0 9.9 5.6 7.0 14.1 10.9 15.0
15.0 15.0 15.0 15.0 15.0 15.0 15.0 15.0 15.0 15.0 15.0 15.0 15.0 15.0 15.0 15.0 15.0 15.0 15.0 15.0 15.0 15.0 15.0 13.0 8.6 14.6 15.0 15.0 15.0 14.7 15.0 15.0
15.0 15.0 15.0 15.0 15.0 15.0 15.0 15.0 15.0 15.0 15.0 15.0 15.0 15.0 15.0 15.0 15.0 15.0 15.0 15.0 15.0 15.0 15.0 15.0 15.0 10.6 4.4 10.9 15.0 12.2 15.0 15.0
15.0 15.0 15.0 15.0 15.0 15.0 15.0 15.0 15.0 15.0 15.0 15.0 15.0 15.0 15.0 15.0 15.0 15.0 15.0 15.0 15.0 15.0 15.0 15.0 15.0 15.0 12.5 13.3 15.0 15.0 15.0 15.0
15.0 15.0 15.0 15.0 15.0 15.0 15.0 15.0 15.0 15.0 15.0 15.0 15.0 15.0 15.0 15.0 15.0 15.0 15.0 15.0 15.0 15.0 15.0 15.0 15.0 15.0 15.0 15.0 15.0 15.0 15.0 15.0
15.0 11.4 15.0 15.0 0.5 15.0 15.0 15.0 15.0 14.3 15.0 14.5 9.8 15.0 15.0 15.0 15.0 15.0 15.0 15.0 15.0 15.0 15.0 15.0 15.0 15.0 15.0 15.0 15.0 15.0 15.0 15.0
15.0 15.0 8.0 8.3 6.2 15.0 15.0 12.7 15.0 12.0 14.7 9.0 7.6 15.0 15.0 15.0 15.0 15.0 15.0 15.0 15.0 15.0 15.0 13.7 14.8 15.0 14.6 8.7 10.6 9.2 12.0 15.0
1.8 4.3 6.5 7.1 13.3 15.0 15.0 15.0 9.9 6.6 14.0 11.4 4.6 15.0 15.0 15.0 15.0 15.0 15.0 15.0 15.0 15.0 15.0 15.0 15.0 13.5 15.0 15.0 15.0 15.0 15.0 15.0
3.5 0.2 1.3 10.7 5.2 9.6 15.0 15.0 15.0 7.1 7.1 14.8 5.1 11.1 15.0 15.0 15.0 15.0 15.0 15.0 15.0 15.0 14.1 13.1 14.8 10.2 15.0 7.2 0.1 15.0 15.0 15.0
0.1 0.1 0.0 4.7 7.1 15.0 15.0 14.0 11.7 6.7 4.2 9.2 12.5 14.3 15.0 15.0 13.0 12.2 13.9 14.9 15.0 15.0 15.0 14.5 11.5 15.0 10.1 15.0 15.0 15.0 15.0 15.0
0.1 0.1 0.1 0.2 6.2 6.4 3.1 6.8 6.6 2.9 2.2 3.7 10.5 14.3 15.0 5.3 7.8 9.8 9.4 14.5 13.9 15.0 15.0 13.9 14.3 12.7 14.0 15.0 15.0 15.0 15.0 15.0